[[{"header":{"parameterUnit":"m.s-1","parameterCategory":1,"la1":30.2991,"la2":30.254,"lo1":-89.0895,"lo2":-89.0444,"dy":0.0017,"dx":0.0017,"nx":28,"ny":28,"refTime":"2024-05-24T03:00:00:Z","depth":0,"parameterNumber":2,"parameterNumberName":"U-component_of_WINDS"},"data":[0,0,0,0,0,0,0,0,0,0,0,0,0,0,0,0,0,0,0,0,0,0,0,0,0,0,0,0,0,0,0,0,0,0,0,0,0,0,0,0,0,0,0,0,0,0,0,0,0,0,0,0,0,0,0,0,0,0,-0.0924,-0.0924,0,-0.0978,-0.0979,-0.098,-0.1037,-0.1038,-0.1039,-0.104,-0.1094,-0.1094,-0.1095,0,0,0,0,0,0,0,0,0,0,0,0,0,-0.0869,-0.0869,-0.0923,-0.0924,-0.0925,-0.0978,-0.0979,-0.098,-0.1037,-0.1038,-0.1039,-0.104,-0.1094,-0.1094,-0.1095,0,0,0,0,0,0,0,0,0,0,0,0,0,-0.0905,-0.087,-0.0923,-0.096,-0.0964,-0.0978,-0.0979,-0.098,-0.1037,-0.1038,-0.1039,-0.104,-0.1093,-0.1094,-0.1095,-0.1077,0,0,-0.1099,-0.1099,0,0,0,0,0,0,0,0,-0.0903,-0.0907,-0.0954,-0.0957,-0.0962,-0.1002,-0.098,-0.1013,-0.1037,-0.1009,-0.104,-0.1041,-0.1062,-0.1066,-0.1073,-0.108,-0.1082,-0.1099,-0.1099,-0.11,-0.11,0,0,0,0,0,0,0,-0.09,-0.0905,-0.0945,-0.0954,-0.0959,-0.0974,-0.098,-0.0986,-0.1028,-0.1012,-0.1016,-0.1022,-0.1065,-0.1072,-0.1075,-0.1083,-0.1099,-0.1099,-0.11,-0.1101,-0.1081,-0.108,0,0,0,0,0,0,-0.0892,-0.0902,-0.0943,-0.0947,-0.0935,-0.0974,-0.0981,-0.0988,-0.1028,-0.1036,-0.1021,-0.1024,-0.107,-0.1074,-0.1077,-0.1061,-0.11,-0.1101,-0.1101,-0.1082,-0.1081,-0.1079,0,0,0,0,0,0,-0.0891,-0.0895,-0.0941,-0.0926,-0.0933,-0.0973,-0.0981,-0.0988,-0.0996,-0.1035,-0.1043,-0.1021,-0.1071,-0.1076,-0.1078,-0.1063,-0.1101,-0.1102,-0.1083,-0.1082,-0.108,-0.1026,0,0,0,0,0,0,-0.0889,-0.0894,-0.0888,-0.0925,-0.0933,-0.094,-0.098,-0.0989,-0.0998,-0.1003,-0.1037,-0.1044,-0.1072,-0.1076,-0.1079,-0.1066,-0.1103,-0.1085,-0.1083,-0.1081,-0.103,-0.1023,-0.1018,0,0,0,0,0,-0.0887,-0.0869,-0.0887,-0.0892,-0.0926,-0.0939,-0.0944,-0.0978,-0.0997,-0.0991,-0.1016,-0.1043,-0.1065,-0.1076,-0.1079,-0.1066,-0.1086,-0.1083,-0.1081,-0.1032,-0.1024,-0.1018,0,0,0,0,0,0,-0.0828,-0.0875,-0.0895,-0.0889,-0.091,-0.0949,-0.0942,-0.0968,-0.0983,-0.0987,-0.1028,-0.1035,-0.1032,-0.105,-0.1061,-0.1053,-0.1079,-0.1077,-0.1041,-0.1034,-0.1028,-0.1024,-0.1104,0,0,0,0,0,-0.0814,-0.0822,-0.0862,-0.0853,-0.0863,-0.0901,-0.0908,-0.0932,-0.0955,-0.0964,-0.099,-0.101,-0.1023,-0.1029,-0.1042,-0.1033,-0.1042,-0.1026,-0.102,-0.1015,-0.1012,-0.1011,-0.1005,-0.1071,-0.1071,-0.1071,0,0,-0.0786,-0.0813,-0.0815,-0.0842,-0.0861,-0.0869,-0.0908,-0.0913,-0.0919,-0.0965,-0.0969,-0.0988,-0.1015,-0.1011,-0.1011,-0.1026,-0.0996,-0.1011,-0.1007,-0.1007,-0.1008,-0.1001,-0.0996,-0.1069,-0.1069,-0.107,0,0,-0.0739,-0.0759,-0.0755,-0.0774,-0.0803,-0.0829,-0.0828,-0.0864,-0.0879,-0.0884,-0.0919,-0.0927,-0.0946,-0.0964,-0.0975,-0.0938,-0.0964,-0.0941,-0.0909,-0.0907,-0.0902,-0.0898,-0.0885,-0.088,-0.0939,-0.0939,-0.0939,0,-0.07,-0.0712,-0.0749,-0.0754,-0.0765,-0.0809,-0.0806,-0.0822,-0.0853,-0.086,-0.0876,-0.0903,-0.0924,-0.0927,-0.0918,-0.0925,-0.0926,-0.0937,-0.09,-0.0896,-0.0892,-0.0881,-0.0876,-0.0936,-0.0936,-0.0936,-0.0937,0,-0.0664,-0.0672,-0.0665,-0.0696,-0.0707,-0.0707,-0.0745,-0.0752,-0.0776,-0.08,-0.0806,-0.0833,-0.0853,-0.0855,-0.0878,-0.0862,-0.087,-0.0892,-0.092,-0.0882,-0.0873,-0.0869,-0.0932,-0.0933,-0.0933,-0.0934,0,0,-0.0579,-0.0632,-0.0629,-0.0645,-0.0681,-0.0688,-0.0691,-0.0712,-0.0718,-0.0739,-0.0743,-0.0759,-0.0781,-0.0794,-0.082,-0.0818,-0.0789,-0.0841,-0.0842,-0.0831,-0.0775,-0.0758,-0.0752,-0.0806,-0.0806,-0.0805,-0.0773,0,-0.0538,-0.0547,-0.0582,-0.058,-0.0589,-0.0632,-0.0635,-0.0658,-0.0681,-0.0692,-0.0718,-0.073,-0.0756,-0.0765,-0.0765,-0.0792,-0.0778,-0.0795,-0.0811,-0.0811,-0.0803,-0.0747,-0.0729,-0.0697,-0.0769,-0.0768,-0.0768,0,-0.0492,-0.0511,-0.051,-0.0549,-0.0554,-0.0556,-0.058,-0.0589,-0.0617,-0.0634,-0.065,-0.068,-0.0686,-0.0712,-0.0722,-0.0733,-0.0742,-0.0757,-0.0756,-0.0759,-0.0787,-0.0749,-0.0687,-0.0683,-0.0762,-0.0763,-0.0763,0,-0.0431,-0.0457,-0.0461,-0.0473,-0.0518,-0.0518,-0.0537,-0.0566,-0.0577,-0.0598,-0.0605,-0.0626,-0.0637,-0.0652,-0.0687,-0.0702,-0.0693,-0.0722,-0.0708,-0.0708,-0.0704,-0.0704,-0.0644,-0.0709,-0.0709,-0.0709,-0.0709,0,-0.0383,-0.0381,-0.0435,-0.0437,-0.0437,-0.0478,-0.0477,-0.0499,-0.0525,-0.0533,-0.0571,-0.0578,-0.0623,-0.0635,-0.0662,-0.0667,-0.0671,-0.0686,-0.0693,-0.0683,-0.0681,-0.0689,-0.0692,-0.0708,-0.0708,-0.0708,-0.0709,0,-0.0315,-0.0351,-0.0358,-0.0401,-0.0412,-0.041,-0.0447,-0.0451,-0.0477,-0.0487,-0.0492,-0.0533,-0.055,-0.0586,-0.0611,-0.0629,-0.0628,-0.0641,-0.0619,-0.0624,-0.0608,-0.061,-0.0551,-0.0546,-0.0614,-0.0613,-0.0613,0,-0.0281,-0.0281,-0.0325,-0.0334,-0.0351,-0.0364,-0.0376,-0.0417,-0.0428,-0.0461,-0.0462,-0.0481,-0.0499,-0.0523,-0.0556,-0.0576,-0.059,-0.0568,-0.0593,-0.0583,-0.0591,-0.0591,-0.0592,-0.0563,-0.0562,-0.0561,-0.056,0,-0.0219,-0.0238,-0.0254,-0.0277,-0.0291,-0.0311,-0.0333,-0.0338,-0.0385,-0.0395,-0.0413,-0.0427,-0.0455,-0.0474,-0.05,-0.0519,-0.0548,-0.0553,-0.0551,-0.054,-0.0528,-0.0535,-0.0605,-0.0553,-0.0554,-0.0555,-0.0555,-0.0555,-0.0168,-0.0171,-0.0203,-0.022,-0.0242,-0.0262,-0.0269,-0.0298,-0.0313,-0.0339,-0.0363,-0.0379,-0.0409,-0.0446,-0.0464,-0.0478,-0.0492,-0.0489,-0.0488,-0.0487,-0.0483,-0.0526,-0.0482,-0.0483,-0.0483,-0.0483,-0.0483,0,-0.0109,-0.0132,-0.0148,-0.0179,-0.0193,-0.022,-0.0246,-0.0256,-0.027,-0.0296,-0.0314,-0.0335,-0.0355,-0.039,-0.0412,-0.0417,-0.043,-0.0421,-0.0421,-0.0426,-0.0468,-0.0468,-0.041,-0.041,-0.041,-0.041,-0.041,-0.041,-0.0079,-0.0086,-0.0109,-0.0127,-0.0151,-0.0167,-0.018,-0.02,-0.0221,-0.0244,-0.0261,-0.0284,-0.0314,-0.0339,-0.0359,-0.0369,-0.0376,-0.0363,-0.0376,-0.0416,-0.0422,-0.0429,-0.0429,-0.0364,-0.0363,-0.0333,-0.0333,-0.0333]},{"header":{"parameterUnit":"m.s-1","parameterCategory":1,"la1":30.2991,"la2":30.254,"lo1":-89.0895,"lo2":-89.0444,"dy":0.0017,"dx":0.0017,"nx":28,"ny":28,"refTime":"2024-05-24T03:00:00:Z","depth":0,"parameterNumber":3,"parameterNumberName":"V-component_of_WINDS"},"data":[0,0,0,0,0,0,0,0,0,0,0,0,0,0,0,0,0,0,0,0,0,0,0,0,0,0,0,0,0,0,0,0,0,0,0,0,0,0,0,0,0,0,0,0,0,0,0,0,0,0,0,0,0,0,0,0,0,0,5.0023,5.0023,0,4.9966,4.9966,4.9965,4.9857,4.9855,4.9853,4.9851,4.9794,4.9795,4.9795,0,0,0,0,0,0,0,0,0,0,0,0,0,5.0041,5.0041,5.0023,5.0023,5.0022,4.9966,4.9965,4.9965,4.9857,4.9855,4.9852,4.985,4.9794,4.9795,4.9795,0,0,0,0,0,0,0,0,0,0,0,0,0,5.0013,5.0041,5.0023,4.9961,4.9955,4.9966,4.9965,4.9964,4.9858,4.9855,4.9851,4.9849,4.9794,4.9795,4.9795,4.9863,0,0,4.9797,4.9798,0,0,0,0,0,0,0,0,5.0015,5.0013,4.9971,4.9966,4.9959,4.9915,4.9951,4.993,4.9859,4.9895,4.9851,4.9847,4.9837,4.9834,4.983,4.986,4.9858,4.9798,4.9798,4.9798,4.9798,0,0,0,0,0,0,0,5.0017,5.0015,5.0001,4.9971,4.9963,4.9937,4.993,4.9946,4.9885,4.9891,4.9884,4.9878,4.9833,4.983,4.9828,4.9857,4.9798,4.9798,4.9799,4.9799,4.9937,4.9941,0,0,0,0,0,0,5.0028,5.0017,5.0002,4.9999,4.998,4.9939,4.9931,4.9933,4.9884,4.9874,4.9881,4.9873,4.983,4.9828,4.9826,4.99,4.9798,4.9799,4.9799,4.9934,4.9938,4.9942,0,0,0,0,0,0,5.0029,5.0028,5.0005,5.0006,5.0001,4.9942,4.9945,4.9933,4.993,4.9876,4.9865,4.9889,4.9828,4.9825,4.9854,4.9897,4.9799,4.98,4.993,4.9935,4.994,5.0051,0,0,0,0,0,0,5.003,5.0028,5.0053,5.0007,5.0001,5.0034,4.9948,4.9934,4.9931,4.992,4.988,4.9871,4.9825,4.9853,4.9855,4.9896,4.98,4.9926,4.9933,4.9938,5.0043,5.0059,5.0072,0,0,0,0,0,5.0031,5.0087,5.0055,5.0054,5.0031,5.0036,5.0033,4.9979,4.9935,4.9959,4.9925,4.9872,4.9892,4.9857,4.9858,4.99,4.9923,4.9931,4.9938,5.0036,5.0056,5.0072,0,0,0,0,0,0,5.0141,5.008,5.0044,5.0087,5.0068,5.0018,5.0047,5.0001,4.9994,4.9985,4.9918,4.991,4.9948,4.9927,4.9889,4.9962,4.9899,4.9907,4.9974,4.9992,5.0006,5.001,4.9801,0,0,0,0,0,5.017,5.0179,5.0126,5.017,5.0162,5.0107,5.0107,5.0067,5.0044,5.0035,5.0003,4.9983,4.9985,4.9987,4.9986,5.004,5.0029,5.0069,5.0084,5.0096,5.0103,5.0129,5.0145,4.9966,4.9966,4.9966,0,0,5.0231,5.0199,5.0209,5.0191,5.0171,5.0182,5.01,5.0116,5.0123,5.0038,5.0062,5.0038,5.0012,5.0053,5.007,5.0037,5.0151,5.0105,5.0116,5.0116,5.0138,5.0155,5.017,4.9971,4.997,4.9969,0,0,5.0347,5.0324,5.0357,5.0339,5.0309,5.0272,5.028,5.0238,5.0218,5.0241,5.0177,5.0186,5.019,5.0174,5.0166,5.0276,5.0227,5.0277,5.0354,5.0379,5.0393,5.0405,5.0443,5.0458,5.0285,5.0285,5.0285,0,5.0426,5.0439,5.038,5.0399,5.0393,5.0316,5.0348,5.0334,5.0306,5.0304,5.0267,5.027,5.0248,5.0283,5.031,5.0307,5.0313,5.0281,5.0396,5.0408,5.0418,5.0453,5.0468,5.0291,5.0291,5.029,5.0289,0,5.0538,5.0548,5.0578,5.0552,5.055,5.0576,5.0521,5.0525,5.0485,5.0452,5.0477,5.0447,5.0437,5.0443,5.0405,5.0473,5.0453,5.0408,5.0343,5.0442,5.0474,5.0487,5.03,5.0298,5.0296,5.0295,0,0,5.0721,5.0661,5.0673,5.066,5.0622,5.0629,5.0651,5.0641,5.0646,5.063,5.0646,5.0652,5.0609,5.06,5.056,5.0582,5.0669,5.0533,5.0532,5.0559,5.0741,5.0775,5.0791,5.0637,5.0639,5.0641,5.0743,0,5.0827,5.0861,5.0808,5.0855,5.0863,5.079,5.0809,5.0788,5.0758,5.0761,5.0728,5.0732,5.0676,5.067,5.0689,5.0655,5.0705,5.0647,5.0651,5.0652,5.0659,5.0808,5.0844,5.0941,5.0755,5.0757,5.0759,0,5.0956,5.0944,5.0991,5.0949,5.0951,5.0969,5.0955,5.0959,5.0934,5.091,5.0901,5.0852,5.0871,5.081,5.0835,5.0796,5.0795,5.0779,5.0781,5.0778,5.0711,5.0808,5.0971,5.0985,5.0778,5.0776,5.0775,0,5.1083,5.108,5.1107,5.1098,5.105,5.1064,5.1045,5.1017,5.1014,5.1002,5.0999,5.0991,5.0986,5.098,5.093,5.089,5.0961,5.0896,5.0941,5.0943,5.0959,5.0958,5.1122,5.0961,5.096,5.096,5.096,0,5.1206,5.1237,5.1163,5.118,5.1212,5.1152,5.1186,5.116,5.1135,5.1145,5.1082,5.1093,5.1027,5.1032,5.0993,5.1019,5.1018,5.0999,5.0988,5.1003,5.1006,5.1001,5.0992,5.0964,5.0963,5.0962,5.0962,0,5.1353,5.1304,5.1329,5.1281,5.127,5.1297,5.1256,5.1269,5.1235,5.1249,5.1249,5.1195,5.1196,5.1147,5.1138,5.1112,5.1155,5.1132,5.1163,5.1155,5.1203,5.1199,5.1369,5.1387,5.1216,5.1218,5.1219,0,5.1434,5.1456,5.1411,5.1413,5.1397,5.1401,5.1397,5.1339,5.1338,5.131,5.1327,5.1323,5.1317,5.1322,5.1283,5.1276,5.1252,5.1312,5.125,5.1265,5.1251,5.125,5.1251,5.1325,5.1327,5.1329,5.133,0,5.1583,5.1558,5.1555,5.1543,5.1541,5.1529,5.1514,5.1519,5.1455,5.1457,5.1457,5.1452,5.1443,5.144,5.1425,5.1406,5.1357,5.135,5.136,5.1375,5.1392,5.1382,5.1197,5.1346,5.1344,5.1343,5.1342,5.1342,5.1698,5.1714,5.1684,5.1683,5.1665,5.1652,5.1662,5.1628,5.1627,5.1615,5.1581,5.1587,5.156,5.1535,5.152,5.1523,5.1494,5.1508,5.1512,5.1516,5.1525,5.1392,5.1521,5.152,5.152,5.1519,5.1519,0,5.1843,5.182,5.1819,5.1799,5.1798,5.1752,5.1732,5.1735,5.174,5.1719,5.1714,5.1714,5.171,5.1671,5.1662,5.1673,5.165,5.1672,5.167,5.1666,5.1552,5.1544,5.169,5.169,5.169,5.169,5.169,5.169,5.1917,5.1941,5.1913,5.1927,5.1904,5.1909,5.1901,5.1889,5.1871,5.1874,5.187,5.1844,5.1815,5.1804,5.1799,5.1787,5.1786,5.1816,5.1797,5.1691,5.1674,5.1659,5.165,5.1817,5.1817,5.191,5.1911,5.1912]}]]